Regional Weather Roundup
Issued by NWS

Home | Current Version | Previous Version | Text Only | Print | Product List | Glossary On
Versions: 1 2 3 4 5 6 7 8 9 10 11 12 13 14 15 16 17 18 19 20 21 22 23 24 25 26 27 28 29 30 31 32 33 34 35 36 37 38 39 40 41 42 43 44 45 46 47 48 49 50
000
ASUS45 KBOU 201207
RWRCO

WEATHER ROUNDUP FOR COLORADO
NATIONAL WEATHER SERVICE DENVER/BOULDER CO
600 AM MDT WED AUG 20 2014

NOTE: "FAIR" INDICATES FEW OR NO CLOUDS BELOW 12000 FEET WITH NO
SIGNIFICANT WEATHER AND/OR OBSTRUCTIONS TO VISIBILITY.

COZ001>005-013-030-031-201300-
...NORTHWEST COLORADO...

CITY           SKY/WX    TMP DP  RH WIND       PRES   REMARKS
CRAIG          CLOUDY    56  54  93 CALM      30.05S
HAYDEN         CLOUDY    55  50  82 E5        30.07R
MEEKER         MOCLDY    56  54  93 NE5       30.06S
MOUNT WERNER   NOT AVBL
STEAMBOAT SPGS CLOUDY    54  53  96 CALM      30.08S
WALDEN         CLOUDY    50  46  87 S7        30.13S
$$

COZ006>008-011-201300-
...WEST CENTRAL VALLEYS...

CITY           SKY/WX    TMP DP  RH WIND       PRES   REMARKS
GRAND JUNCTION CLOUDY    61  60  97 S3        30.01R
MONTROSE       CLOUDY    62  58  86 CALM      30.07S
EAGLE          CLOUDY    57  55  94 CALM      30.11R
RIFLE          MOCLDY    60  58  92 CALM      30.04R
DELTA          RAIN      64  59  85 NE3       30.04S
NUCLA          MOCLDY    63  54  72 CALM      30.11S
$$

COZ017>023-064>068-201300-
...SOUTHWEST COLORADO...

CITY           SKY/WX    TMP DP  RH WIND       PRES   REMARKS
DURANGO        CLOUDY    58  52  80 CALM      30.14R
CORTEZ         CLEAR     55  54  96 CALM      30.11R
PAGOSA SPRINGS CLOUDY    55  53  95 CALM      30.20R
TELLURIDE      NOT AVBL
WOLF CREEK PAS NOT AVBL
$$

COZ009-010-012-014-032>034-037-058>063-201300-
...CENTRAL COLORADO...

CITY           SKY/WX    TMP DP  RH WIND       PRES   REMARKS
ASPEN          LGT RAIN  53  52  96 CALM      30.15R
BUENA VISTA    CLOUDY    53  47  79 CALM      30.14R
COPPER MTN     HAZE      45  41  87 SW5G17    30.39R VSB<1/4
BERTHOUD PASS  SNOW      36  36 100 NW16      30.40F VSB<1/4
COTTONWOOD PAS MOCLDY    55  41  58 CALM      30.25S
GUNNISON       CLOUDY    55  46  71 SE3       30.18S
KREMMLING      CLOUDY    54  50  87 CALM      30.14S
LEADVILLE      CLOUDY    47  45  93 N5        30.25R
MONARCH PASS   CLOUDY    41  39  93 W22       30.48S
SALIDA         PTCLDY    59  46  63 SW8       30.18R
SUNLIGHT       LGT RAIN  46  46 100 CALM      30.32S VSB 1
WILKERSON PASS CLEAR     45  37  76 SW10      30.35R
$$

COZ069>075-201300-
...SAN LUIS VALLEY/SANGRE DE CRISTO MOUNTAINS...

CITY           SKY/WX    TMP DP  RH WIND       PRES   REMARKS
ALAMOSA        MOCLDY    58  47  66 SW9       30.13R
LA VETA PASS   CLOUDY    52  41  66 S13G24    30.25S
SAGUACHE       MOCLDY    55  45  67 CALM      30.15S
$$

COZ035-036-038>040-201300-
...NORTHERN COLORADO FRONT RANGE...

CITY           SKY/WX    TMP DP  RH WIND       PRES   REMARKS
DENVER INTL AP MOCLDY    64  53  67 NW7       29.92R
DMNS CITY PARK   N/A     61  54  76 NE2       29.92S
AURORA         MOCLDY    61  53  74 W5        29.95R
FRONT RANGE AP MOCLDY    63  55  77 W7        29.93R
ERIE MUNI ARPT PTCLDY    58  54  85 CALM      29.90S
BOULDER MUN AP PTCLDY    64  50  59 S3        29.91S
CENTENNIAL     PTCLDY    61  49  64 CALM      29.95R
BROOMFIELD     PTCLDY    66  46  48 CALM      29.95R
FORT COLLINS   MOCLDY    63  54  72 N3        29.92R
LONGMONT       MOCLDY    61  53  75 CALM      29.92R
$$

COZ041-046-047-076>085-087-088-201300-
...PIKES PEAK/PALMER DIVIDE AND SOUTHERN FOOTHILLS...

CITY           SKY/WX    TMP DP  RH WIND       PRES   REMARKS
COLO. SPRINGS  MOCLDY    64  48  56 N3        29.98R
A. F. ACADEMY  PTCLDY    59  48  67 NW3       30.00R
ELLICOTT       MOCLDY    61  48  62 S6        29.96S
FALCON         MOCLDY    60  47  63 SE3       30.03R
FORT CARSON    MOCLDY    57  50  77 NW7       29.95R
LIMON          CLOUDY    61  50  67 S3        29.91S
MONUMENT HILL  MOCLDY    59  45  58 SW8       30.03R
TRINIDAD       MOCLDY    65  47  52 E5        29.97R
$$

COZ042>045-048>051-090-091-201300-
...NORTHEAST COLORADO...

CITY           SKY/WX    TMP DP  RH WIND       PRES   REMARKS
GREELEY ARPT   CLOUDY    61  52  72 NW8       29.89R
AKRON          CLOUDY    64  58  80 W6        29.86S
BURLINGTON     CLOUDY    70  57  63 S12G20    29.84R
WRAY             N/A     64  61  91 CALM      29.81R
STERLING       CLOUDY    64  63  94 NE3       29.83R
HOLYOKE        NOT AVBL
FORT MORGAN    CLOUDY    60  57  89 CALM      29.87R
$$

COZ086-089-092>099-201300-
...SOUTHEAST COLORADO...

CITY           SKY/WX    TMP DP  RH WIND       PRES   REMARKS
PUEBLO         MOCLDY    65  53  65 W3        29.88R
LA JUNTA       MOCLDY    71  50  47 SW8       29.85S
LAMAR          PTCLDY    68  58  70 W3        29.81R
SPRINGFIELD      N/A     65  59  81 SW7       29.89S
$$


USA.gov is the U.S. government's official web portal to all federal, state and local government web resources and services.